Time,TemperatureF,DewpointF,PressureIn,WindDirection,WindDirectionDegrees,WindSpeedMPH,WindSpeedGustMPH,Humidity,HourlyPrecipIn,Conditions,Clouds,dailyrainin,SolarRadiationWatts/m^2,SoftwareType,DateUTC
2013-07-21 00:04:00,73.3,73.0,29.98,NNW,346,0.0,-999.0,98,-99.99,,,0.00,0,weatherlink.com 1.10,2013-07-21 04:04:00,
2013-07-21 00:19:00,73.4,73.0,29.98,NNW,346,0.0,-999.0,98,-99.99,,,0.00,0,weatherlink.com 1.10,2013-07-21 04:19:00,
2013-07-21 00:34:00,73.4,73.0,29.98,NNW,346,0.0,-999.0,98,-99.99,,,0.00,0,weatherlink.com 1.10,2013-07-21 04:34:00,
2013-07-21 00:49:00,73.3,73.0,29.98,NNW,346,0.0,-999.0,99,-99.99,,,0.00,0,weatherlink.com 1.10,2013-07-21 04:49:00,
2013-07-21 01:04:00,73.1,73.0,29.98,NNW,346,0.0,-999.0,99,-99.99,,,0.00,0,weatherlink.com 1.10,2013-07-21 05:04:00,
2013-07-21 01:19:00,73.0,72.0,29.97,NNW,346,0.0,-999.0,98,-99.99,,,0.00,0,weatherlink.com 1.10,2013-07-21 05:19:00,
2013-07-21 01:34:00,73.0,73.0,29.97,NNW,346,0.0,-999.0,99,-99.99,,,0.00,0,weatherlink.com 1.10,2013-07-21 05:34:00,
2013-07-21 01:49:00,73.0,73.0,29.97,NNW,346,0.0,-999.0,99,-99.99,,,0.00,0,weatherlink.com 1.10,2013-07-21 05:49:00,
2013-07-21 02:04:00,72.8,72.0,29.96,NNW,346,0.0,-999.0,98,-99.99,,,0.00,0,weatherlink.com 1.10,2013-07-21 06:04:00,
2013-07-21 02:19:00,72.6,72.0,29.95,NNW,346,0.0,-999.0,99,-99.99,,,0.00,0,weatherlink.com 1.10,2013-07-21 06:19:00,
2013-07-21 02:34:00,72.4,72.0,29.95,NNW,346,0.0,-999.0,98,-99.99,,,0.00,0,weatherlink.com 1.10,2013-07-21 06:34:00,
2013-07-21 02:49:00,72.0,72.0,29.95,NNW,346,0.0,-999.0,99,-99.99,,,0.00,0,weatherlink.com 1.10,2013-07-21 06:49:00,
2013-07-21 03:04:00,71.9,72.0,29.95,NNW,346,0.0,-999.0,99,-99.99,,,0.00,0,weatherlink.com 1.10,2013-07-21 07:04:00,
2013-07-21 03:19:00,71.8,72.0,29.96,NNW,346,0.0,-999.0,99,-99.99,,,0.00,0,weatherlink.com 1.10,2013-07-21 07:19:00,
2013-07-21 03:34:00,71.8,72.0,29.95,NNW,346,0.0,-999.0,99,-99.99,,,0.00,0,weatherlink.com 1.10,2013-07-21 07:34:00,
2013-07-21 03:49:00,71.7,71.0,29.94,NNW,346,0.0,-999.0,99,-99.99,,,0.00,0,weatherlink.com 1.10,2013-07-21 07:49:00,
2013-07-21 04:04:00,71.6,71.0,29.95,NNW,346,0.0,-999.0,99,-99.99,,,0.00,0,weatherlink.com 1.10,2013-07-21 08:04:00,
2013-07-21 04:19:00,71.7,71.0,29.95,NNW,346,0.0,-999.0,99,-99.99,,,0.00,0,weatherlink.com 1.10,2013-07-21 08:19:00,
2013-07-21 04:34:00,71.9,72.0,29.95,NNW,346,0.0,-999.0,99,-99.99,,,0.00,0,weatherlink.com 1.10,2013-07-21 08:34:00,
2013-07-21 04:49:00,72.2,72.0,29.95,West,273,0.0,-999.0,99,-99.99,,,0.00,0,weatherlink.com 1.10,2013-07-21 08:49:00,
2013-07-21 05:04:00,72.3,72.0,29.94,WNW,286,0.0,-999.0,99,-99.99,,,0.00,0,weatherlink.com 1.10,2013-07-21 09:04:00,
2013-07-21 05:19:00,72.0,72.0,29.94,WNW,286,0.0,-999.0,99,-99.99,,,0.00,0,weatherlink.com 1.10,2013-07-21 09:19:00,
2013-07-21 05:34:00,71.9,72.0,29.94,WNW,286,0.0,-999.0,99,-99.99,,,0.00,0,weatherlink.com 1.10,2013-07-21 09:34:00,
2013-07-21 05:49:00,71.8,72.0,29.95,NNW,333,0.0,-999.0,99,-99.99,,,0.00,0,weatherlink.com 1.10,2013-07-21 09:49:00,
2013-07-21 06:04:00,71.9,72.0,29.94,West,279,0.0,-999.0,99,-99.99,,,0.00,0,weatherlink.com 1.10,2013-07-21 10:04:00,
2013-07-21 06:19:00,71.8,72.0,29.94,West,277,0.0,-999.0,99,-99.99,,,0.00,0,weatherlink.com 1.10,2013-07-21 10:19:00,
2013-07-21 06:34:00,71.8,72.0,29.95,West,277,0.0,-999.0,99,-99.99,,,0.00,5,weatherlink.com 1.10,2013-07-21 10:34:00,
2013-07-21 06:49:00,71.7,71.0,29.95,West,277,0.0,-999.0,99,-99.99,,,0.00,11,weatherlink.com 1.10,2013-07-21 10:49:00,
2013-07-21 07:04:00,71.7,71.0,29.96,West,259,0.0,-999.0,99,-99.99,,,0.00,12,weatherlink.com 1.10,2013-07-21 11:04:00,
2013-07-21 07:19:00,71.6,71.0,29.96,WSW,248,0.0,-999.0,99,-99.99,,,0.00,21,weatherlink.com 1.10,2013-07-21 11:19:00,
2013-07-21 07:34:00,71.6,71.0,29.97,WNW,288,1.0,-999.0,99,-99.99,,,0.00,35,weatherlink.com 1.10,2013-07-21 11:34:00,
2013-07-21 07:49:00,71.6,71.0,29.98,WNW,292,0.0,-999.0,99,-99.99,,,0.00,39,weatherlink.com 1.10,2013-07-21 11:49:00,
2013-07-21 08:04:00,71.7,71.0,29.99,West,281,0.0,-999.0,99,-99.99,,,0.00,44,weatherlink.com 1.10,2013-07-21 12:04:00,
2013-07-21 08:19:00,71.8,72.0,29.99,WNW,291,0.0,-999.0,99,-99.99,,,0.00,49,weatherlink.com 1.10,2013-07-21 12:19:00,
2013-07-21 08:34:00,72.1,72.0,29.99,WNW,291,0.0,-999.0,99,-99.99,,,0.00,70,weatherlink.com 1.10,2013-07-21 12:34:00,
2013-07-21 09:04:00,72.3,72.0,30.00,West,261,0.0,-999.0,99,-99.99,,,0.00,134,weatherlink.com 1.10,2013-07-21 13:04:00,
2013-07-21 09:19:00,72.7,72.0,29.99,SW,236,0.0,-999.0,99,-99.99,,,0.00,132,weatherlink.com 1.10,2013-07-21 13:19:00,
2013-07-21 09:34:00,73.4,73.0,30.00,SW,236,0.0,-999.0,99,-99.99,,,0.00,125,weatherlink.com 1.10,2013-07-21 13:34:00,
2013-07-21 09:49:00,73.7,73.0,30.00,West,267,0.0,-999.0,98,-99.99,,,0.00,141,weatherlink.com 1.10,2013-07-21 13:49:00,
2013-07-21 10:04:00,74.0,73.0,30.00,West,268,0.0,-999.0,97,-99.99,,,0.00,172,weatherlink.com 1.10,2013-07-21 14:04:00,
2013-07-21 10:19:00,74.6,73.0,30.00,West,268,0.0,-999.0,96,-99.99,,,0.00,241,weatherlink.com 1.10,2013-07-21 14:19:00,
2013-07-21 10:34:00,75.2,74.0,30.00,WNW,284,0.0,-999.0,95,-99.99,,,0.00,262,weatherlink.com 1.10,2013-07-21 14:34:00,
2013-07-21 10:49:00,75.8,74.0,30.01,WNW,293,0.0,-999.0,93,-99.99,,,0.00,313,weatherlink.com 1.10,2013-07-21 14:49:00,
2013-07-21 11:04:00,76.3,74.0,30.00,WNW,292,0.0,-999.0,92,-99.99,,,0.00,278,weatherlink.com 1.10,2013-07-21 15:04:00,
2013-07-21 11:19:00,76.9,74.0,30.00,WNW,292,0.0,-999.0,91,-99.99,,,0.00,232,weatherlink.com 1.10,2013-07-21 15:19:00,
2013-07-21 11:34:00,77.4,74.0,30.00,WNW,292,0.0,-999.0,90,-99.99,,,0.00,355,weatherlink.com 1.10,2013-07-21 15:34:00,
2013-07-21 11:49:00,78.4,75.0,30.00,WNW,290,0.0,-999.0,88,-99.99,,,0.00,279,weatherlink.com 1.10,2013-07-21 15:49:00,
2013-07-21 12:04:00,79.3,75.0,30.00,WNW,290,0.0,-999.0,86,-99.99,,,0.00,540,weatherlink.com 1.10,2013-07-21 16:04:00,
2013-07-21 12:19:00,79.9,75.0,29.99,WNW,290,0.0,-999.0,84,-99.99,,,0.00,860,weatherlink.com 1.10,2013-07-21 16:19:00,
2013-07-21 12:34:00,80.9,76.0,29.99,WNW,287,0.0,-999.0,84,-99.99,,,0.00,297,weatherlink.com 1.10,2013-07-21 16:34:00,
2013-07-21 12:49:00,81.7,76.0,29.98,WNW,290,0.0,-999.0,83,-99.99,,,0.00,886,weatherlink.com 1.10,2013-07-21 16:49:00,
2013-07-21 13:04:00,82.5,77.0,29.98,SW,236,0.0,-999.0,82,-99.99,,,0.00,898,weatherlink.com 1.10,2013-07-21 17:04:00,
2013-07-21 13:19:00,83.1,76.0,29.97,NW,317,0.0,-999.0,80,-99.99,,,0.00,912,weatherlink.com 1.10,2013-07-21 17:19:00,
2013-07-21 13:34:00,83.4,76.0,29.97,NW,313,0.0,-999.0,79,-99.99,,,0.00,914,weatherlink.com 1.10,2013-07-21 17:34:00,
2013-07-21 13:49:00,84.3,77.0,29.96,NW,312,0.0,-999.0,79,-99.99,,,0.00,912,weatherlink.com 1.10,2013-07-21 17:49:00,
2013-07-21 14:04:00,84.9,77.0,29.95,NW,310,0.0,-999.0,76,-99.99,,,0.00,918,weatherlink.com 1.10,2013-07-21 18:04:00,
2013-07-21 14:19:00,85.3,77.0,29.94,NW,323,0.0,-999.0,75,-99.99,,,0.00,919,weatherlink.com 1.10,2013-07-21 18:19:00,
2013-07-21 14:34:00,85.6,76.0,29.94,NW,323,0.0,-999.0,73,-99.99,,,0.00,916,weatherlink.com 1.10,2013-07-21 18:34:00,
2013-07-21 14:49:00,86.2,77.0,29.92,NW,320,0.0,-999.0,74,-99.99,,,0.00,921,weatherlink.com 1.10,2013-07-21 18:49:00,
2013-07-21 15:04:00,86.7,77.0,29.93,NW,318,0.0,-999.0,73,-99.99,,,0.00,963,weatherlink.com 1.10,2013-07-21 19:04:00,
2013-07-21 15:19:00,87.5,78.0,29.93,NW,318,0.0,-999.0,74,-99.99,,,0.00,953,weatherlink.com 1.10,2013-07-21 19:19:00,
2013-07-21 15:34:00,87.4,77.0,29.92,WNW,300,0.0,-999.0,70,-99.99,,,0.00,540,weatherlink.com 1.10,2013-07-21 19:34:00,
2013-07-21 15:49:00,86.9,77.0,29.91,WNW,300,0.0,-999.0,72,-99.99,,,0.00,570,weatherlink.com 1.10,2013-07-21 19:49:00,
2013-07-21 16:04:00,86.2,78.0,29.91,WNW,300,0.0,-999.0,77,-99.99,,,0.00,236,weatherlink.com 1.10,2013-07-21 20:04:00,
2013-07-21 16:19:00,85.9,76.0,29.91,WNW,300,1.0,-999.0,73,-99.99,,,0.00,612,weatherlink.com 1.10,2013-07-21 20:19:00,
2013-07-21 16:34:00,86.2,77.0,29.91,NNW,345,0.0,-999.0,73,-99.99,,,0.00,109,weatherlink.com 1.10,2013-07-21 20:34:00,
2013-07-21 16:49:00,85.9,77.0,29.91,NNW,345,0.0,-999.0,75,-99.99,,,0.00,81,weatherlink.com 1.10,2013-07-21 20:49:00,
2013-07-21 17:04:00,84.5,76.0,29.92,NNE,24,3.0,-999.0,76,-99.99,,,0.00,56,weatherlink.com 1.10,2013-07-21 21:04:00,
2013-07-21 17:19:00,82.8,76.0,29.92,West,277,0.0,-999.0,80,-99.99,,,0.00,37,weatherlink.com 1.10,2013-07-21 21:19:00,
2013-07-21 17:34:00,81.8,77.0,29.91,WNW,291,0.0,-999.0,84,-99.99,,,0.00,84,weatherlink.com 1.10,2013-07-21 21:34:00,
2013-07-21 17:49:00,80.8,76.0,29.92,WNW,291,0.0,-999.0,86,-99.99,,,0.00,105,weatherlink.com 1.10,2013-07-21 21:49:00,
2013-07-21 18:04:00,80.1,76.0,29.93,WNW,291,0.0,-999.0,86,-99.99,,,0.00,53,weatherlink.com 1.10,2013-07-21 22:04:00,
2013-07-21 18:19:00,79.8,75.0,29.92,NE,36,0.0,-999.0,86,-99.99,,,0.00,30,weatherlink.com 1.10,2013-07-21 22:19:00,
2013-07-21 18:34:00,79.5,75.0,29.92,NE,36,0.0,-999.0,87,-99.99,,,0.00,44,weatherlink.com 1.10,2013-07-21 22:34:00,
2013-07-21 18:49:00,79.4,76.0,29.95,NE,36,0.0,-999.0,89,-99.99,,,0.00,26,weatherlink.com 1.10,2013-07-21 22:49:00,
2013-07-21 19:04:00,79.3,77.0,29.94,NE,36,0.0,-999.0,91,-99.99,,,0.00,39,weatherlink.com 1.10,2013-07-21 23:04:00,
2013-07-21 19:19:00,78.8,76.0,29.94,NE,36,0.0,-999.0,91,-99.99,,,0.00,21,weatherlink.com 1.10,2013-07-21 23:19:00,
2013-07-21 19:34:00,78.6,76.0,29.94,NE,36,0.0,-999.0,92,-99.99,,,0.00,12,weatherlink.com 1.10,2013-07-21 23:34:00,
2013-07-21 19:49:00,78.4,76.0,29.94,NE,36,0.0,-999.0,93,-99.99,,,0.00,11,weatherlink.com 1.10,2013-07-21 23:49:00,
2013-07-21 20:04:00,78.0,76.0,29.92,NE,36,0.0,-999.0,93,-99.99,,,0.00,9,weatherlink.com 1.10,2013-07-22 00:04:00,
2013-07-21 20:19:00,77.5,75.0,29.93,NE,36,0.0,-999.0,93,-99.99,,,0.00,5,weatherlink.com 1.10,2013-07-22 00:19:00,
2013-07-21 20:34:00,77.0,75.0,29.93,NE,36,0.0,-999.0,93,-99.99,,,0.00,0,weatherlink.com 1.10,2013-07-22 00:34:00,
2013-07-21 20:49:00,76.5,74.0,29.94,NE,36,0.0,-999.0,93,-99.99,,,0.00,0,weatherlink.com 1.10,2013-07-22 00:49:00,
2013-07-21 21:04:00,76.1,74.0,29.95,NE,36,0.0,-999.0,93,-99.99,,,0.00,0,weatherlink.com 1.10,2013-07-22 01:04:00,
2013-07-21 21:19:00,75.8,74.0,29.94,NE,36,0.0,-999.0,94,-99.99,,,0.00,0,weatherlink.com 1.10,2013-07-22 01:19:00,
2013-07-21 21:34:00,75.6,74.0,29.95,NE,36,0.0,-999.0,94,-99.99,,,0.00,0,weatherlink.com 1.10,2013-07-22 01:34:00,
2013-07-21 21:49:00,75.4,74.0,29.96,NE,36,0.0,-999.0,95,-99.99,,,0.00,0,weatherlink.com 1.10,2013-07-22 01:49:00,
2013-07-21 22:04:00,75.2,74.0,29.96,NE,36,0.0,-999.0,95,-99.99,,,0.00,0,weatherlink.com 1.10,2013-07-22 02:04:00,
2013-07-21 22:19:00,75.1,74.0,29.97,NE,36,0.0,-999.0,96,-99.99,,,0.00,0,weatherlink.com 1.10,2013-07-22 02:19:00,
2013-07-21 22:34:00,75.1,74.0,29.96,NE,36,0.0,-999.0,96,-99.99,,,0.00,0,weatherlink.com 1.10,2013-07-22 02:34:00,
2013-07-21 22:49:00,74.9,74.0,29.96,NE,36,0.0,-999.0,96,-99.99,,,0.00,0,weatherlink.com 1.10,2013-07-22 02:49:00,
2013-07-21 23:04:00,74.8,74.0,29.96,NE,36,0.0,-999.0,96,-99.99,,,0.00,0,weatherlink.com 1.10,2013-07-22 03:04:00,
2013-07-21 23:19:00,74.6,73.0,29.97,NE,36,0.0,-999.0,96,-99.99,,,0.00,0,weatherlink.com 1.10,2013-07-22 03:19:00,
2013-07-21 23:35:00,74.6,74.0,29.97,NE,36,0.0,-999.0,97,-99.99,,,0.00,0,weatherlink.com 1.10,2013-07-22 03:35:00,
2013-07-21 23:49:00,74.6,74.0,29.97,NE,36,0.0,-999.0,97,-99.99,,,0.00,0,weatherlink.com 1.10,2013-07-22 03:49:00,